Total_Precipitation_Accumulation
0.86 0.93 0.91 0.95 1.05 1.33 1.54 1.47 1.27 1.24 1.24 1.20 1.11 1.16 1.29 1.41 1.52 1.61 1.68 1.72 1.73 1.83 1.78 1.71 1.75 1.81 1.98 1.94 1.88 1.78 1.65 1.47 1.33 1.16 0.85 0.64 0.58 0.52 0.45 0.34 0.26 0.21 0.15
0.70 0.76 0.82 0.83 0.92 1.04 1.16 1.17 1.09 0.98 0.93 0.97 1.02 1.01 1.08 1.21 1.28 1.30 1.37 1.44 1.49 1.57 1.62 1.55 1.54 1.57 1.64 1.81 1.88 1.82 1.75 1.60 1.47 1.36 1.07 0.79 0.62 0.54 0.50 0.43 0.32 0.26 0.21
0.63 0.68 0.75 0.77 0.78 0.79 0.80 0.74 0.77 0.78 0.81 0.82 0.95 1.00 1.06 1.09 1.23 1.25 1.23 1.23 1.30 1.32 1.40 1.46 1.49 1.52 1.50 1.56 1.53 1.57 1.62 1.66 1.62 1.47 1.26 1.02 0.81 0.62 0.52 0.48 0.40 0.36 0.29
0.74 0.80 0.84 0.85 0.84 0.82 0.80 0.76 0.74 0.77 0.81 0.88 1.03 1.11 1.12 1.11 1.11 1.14 1.17 1.17 1.12 1.07 1.09 1.12 1.22 1.33 1.36 1.47 1.42 1.35 1.41 1.53 1.69 1.64 1.44 1.15 0.96 0.78 0.63 0.58 0.60 0.54 0.45
0.65 0.77 0.81 0.84 0.86 0.81 0.73 0.71 0.74 0.71 0.68 0.78 0.94 1.12 1.16 1.15 1.09 1.12 1.16 1.20 1.14 1.01 0.95 0.94 0.97 1.08 1.29 1.35 1.28 1.35 1.43 1.42 1.51 1.56 1.50 1.31 1.08 0.88 0.72 0.64 0.63 0.67 0.58
0.54 0.64 0.80 0.86 0.79 0.74 0.67 0.65 0.67 0.66 0.61 0.65 0.78 0.99 1.08 1.06 1.41 1.38 1.20 1.19 1.16 1.02 0.91 0.87 0.82 0.82 1.00 1.24 1.31 1.34 1.41 1.47 1.46 1.41 1.39 1.29 1.16 1.03 0.94 0.84 0.71 0.63 0.63
0.48 0.60 0.79 0.80 0.69 0.64 0.70 0.74 0.70 0.68 0.67 0.69 0.71 0.74 0.82 1.07 1.09 0.91 0.96 0.99 1.07 0.99 0.86 0.76 0.67 0.65 0.75 0.83 0.92 0.98 1.16 1.38 1.47 1.39 1.23 1.16 1.20 1.09 0.97 0.87 0.79 0.70 0.65
0.41 0.50 0.65 0.67 0.66 0.69 0.69 0.67 0.62 0.58 0.56 0.58 0.60 0.64 0.69 0.82 0.80 0.74 0.82 0.76 0.88 0.87 0.78 0.72 0.67 0.64 0.69 0.76 0.83 0.89 0.95 1.05 1.19 1.11 0.99 0.99 1.04 1.03 0.96 0.89 0.86 0.79 0.68
0.28 0.36 0.46 0.49 0.54 0.56 0.55 0.56 0.52 0.48 0.50 0.50 0.54 0.61 0.68 0.68 0.69 0.66 0.69 0.78 0.91 0.86 0.75 0.73 0.68 0.67 0.82 0.87 0.79 0.79 0.90 0.91 1.03 1.07 1.12 1.07 0.93 0.83 0.80 0.77 0.78 0.77 0.74
0.20 0.27 0.34 0.37 0.41 0.43 0.48 0.51 0.51 0.48 0.46 0.45 0.46 0.48 0.57 0.61 0.72 0.59 0.67 0.83 0.93 0.91 0.86 0.79 0.84 0.81 0.89 0.89 0.77 0.81 0.93 0.79 0.73 0.78 0.80 0.77 0.66 0.59 0.63 0.61 0.69 0.75 0.71
0.11 0.16 0.23 0.30 0.37 0.45 0.51 0.52 0.55 0.52 0.47 0.46 0.51 0.50 0.50 0.61 0.72 0.66 0.68 0.74 0.92 0.94 0.93 0.89 0.78 0.82 0.78 0.82 0.84 0.86 1.02 0.85 0.70 0.70 0.74 0.69 0.56 0.50 0.52 0.55 0.59 0.64 0.65
0.06 0.11 0.18 0.26 0.33 0.41 0.51 0.54 0.54 0.54 0.53 0.54 0.54 0.56 0.56 0.55 0.60 0.63 0.64 0.69 0.79 0.83 0.89 0.84 0.75 0.76 0.63 0.62 0.65 0.76 0.96 0.86 0.66 0.67 0.72 0.72 0.63 0.55 0.52 0.50 0.50 0.51 0.51
0.02 0.06 0.11 0.15 0.19 0.25 0.32 0.41 0.47 0.51 0.53 0.53 0.57 0.65 0.67 0.61 0.63 0.71 0.57 0.53 0.60 0.64 0.66 0.72 0.68 0.62 0.53 0.46 0.51 0.60 0.71 0.84 0.79 0.69 0.63 0.60 0.59 0.56 0.51 0.45 0.40 0.38 0.36
0.01 0.03 0.05 0.06 0.07 0.10 0.20 0.28 0.35 0.42 0.47 0.55 0.61 0.69 0.77 0.72 0.65 0.58 0.48 0.44 0.46 0.45 0.42 0.42 0.43 0.44 0.44 0.43 0.43 0.47 0.59 0.76 0.81 0.71 0.59 0.55 0.55 0.52 0.46 0.40 0.39 0.38 0.35
0.01 0.01 0.02 0.04 0.06 0.08 0.14 0.22 0.27 0.34 0.37 0.41 0.51 0.63 0.67 0.66 0.65 0.70 0.67 0.62 0.57 0.55 0.50 0.42 0.37 0.39 0.44 0.48 0.48 0.46 0.50 0.60 0.64 0.58 0.51 0.48 0.49 0.50 0.45 0.38 0.34 0.31 0.29
0.06 0.03 0.02 0.03 0.06 0.08 0.11 0.13 0.13 0.16 0.16 0.20 0.25 0.30 0.34 0.37 0.38 0.37 0.43 0.50 0.49 0.46 0.57 0.61 0.56 0.56 0.56 0.53 0.52 0.43 0.38 0.41 0.49 0.51 0.47 0.42 0.41 0.43 0.44 0.39 0.35 0.33 0.29
0.14 0.11 0.07 0.05 0.05 0.06 0.07 0.10 0.11 0.07 0.05 0.07 0.08 0.14 0.20 0.21 0.21 0.21 0.25 0.32 0.40 0.44 0.58 0.61 0.54 0.47 0.43 0.40 0.41 0.37 0.32 0.32 0.35 0.40 0.40 0.40 0.38 0.39 0.44 0.46 0.43 0.39 0.35
0.03 0.03 0.05 0.08 0.05 0.04 0.07 0.13 0.19 0.21 0.15 0.08 0.04 0.06 0.11 0.14 0.16 0.18 0.20 0.25 0.26 0.31 0.40 0.47 0.43 0.37 0.31 0.30 0.28 0.25 0.24 0.26 0.27 0.30 0.32 0.34 0.37 0.40 0.43 0.47 0.51 0.48 0.45
0.01 0.03 0.09 0.10 0.06 0.05 0.10 0.18 0.20 0.19 0.18 0.12 0.06 0.03 0.04 0.06 0.08 0.10 0.13 0.19 0.18 0.15 0.18 0.27 0.30 0.28 0.23 0.18 0.15 0.13 0.12 0.12 0.13 0.17 0.22 0.26 0.30 0.35 0.40 0.43 0.45 0.49 0.50
0.02 0.02 0.09 0.14 0.08 0.08 0.10 0.10 0.10 0.12 0.10 0.07 0.06 0.05 0.04 0.06 0.07 0.05 0.05 0.08 0.09 0.08 0.10 0.14 0.17 0.18 0.16 0.14 0.11 0.09 0.09 0.10 0.09 0.11 0.14 0.19 0.22 0.25 0.29 0.36 0.41 0.43 0.42
0.06 0.03 0.03 0.14 0.17 0.14 0.12 0.10 0.11 0.13 0.09 0.05 0.03 0.01 0.02 0.05 0.07 0.06 0.05 0.06 0.07 0.08 0.09 0.09 0.10 0.14 0.13 0.12 0.11 0.10 0.09 0.09 0.08 0.09 0.10 0.11 0.13 0.16 0.19 0.21 0.24 0.29 0.34
0.02 0.03 0.04 0.13 0.18 0.14 0.11 0.11 0.12 0.10 0.08 0.05 0.03 0.01 0.02 0.04 0.05 0.06 0.05 0.06 0.07 0.08 0.08 0.06 0.08 0.11 0.12 0.10 0.09 0.10 0.10 0.09 0.07 0.09 0.11 0.12 0.11 0.11 0.11 0.12 0.13 0.15 0.18
0.01 0.02 0.03 0.07 0.08 0.04 0.05 0.08 0.09 0.09 0.06 0.04 0.03 0.02 0.02 0.03 0.04 0.04 0.04 0.07 0.10 0.11 0.08 0.06 0.08 0.12 0.14 0.14 0.12 0.13 0.13 0.12 0.10 0.08 0.09 0.12 0.13 0.14 0.12 0.12 0.12 0.14 0.16
0.01 0.01 0.02 0.04 0.04 0.05 0.08 0.09 0.07 0.06 0.06 0.04 0.03 0.03 0.04 0.05 0.04 0.04 0.05 0.07 0.10 0.11 0.08 0.07 0.07 0.09 0.12 0.15 0.16 0.16 0.15 0.14 0.11 0.08 0.08 0.09 0.10 0.12 0.13 0.13 0.14 0.16 0.18
0.02 0.01 0.02 0.03 0.04 0.05 0.05 0.07 0.07 0.06 0.07 0.06 0.05 0.04 0.04 0.05 0.06 0.04 0.03 0.04 0.06 0.06 0.05 0.05 0.07 0.11 0.13 0.14 0.16 0.18 0.23 0.22 0.16 0.12 0.09 0.09 0.10 0.11 0.13 0.16 0.18 0.21 0.24
0.02 0.01 0.02 0.04 0.05 0.06 0.06 0.07 0.06 0.06 0.07 0.06 0.06 0.06 0.06 0.06 0.05 0.04 0.04 0.04 0.04 0.04 0.07 0.07 0.08 0.11 0.13 0.14 0.12 0.12 0.14 0.14 0.13 0.13 0.10 0.09 0.10 0.11 0.14 0.17 0.21 0.26 0.30